Regional Weather Roundup
Issued by NWS

Home | Current Version | Previous Version | Text Only | Print | Product List | Glossary On
Versions: 1 2 3 4 5 6 7 8 9 10 11 12 13 14 15 16 17 18 19 20 21 22 23 24 25 26 27 28 29 30 31 32 33 34 35 36 37 38 39 40 41 42 43 44 45 46 47 48 49 50
000
ASUS45 KABQ 220110
RWRNM
NEW MEXICO REGIONAL WEATHER ROUNDUP
NATIONAL WEATHER SERVICE ALBUQUERQUE NM
700 PM MDT SAT APR 21 2018

NOTE: "FAIR" MEANS FEW OR NO CLOUDS BELOW 12,000 FEET AGL WITH NO
       SIGNIFICANT WEATHER OR OBSTRUCTIONS TO VISION.

      THIS PRODUCT IS RELEASED AS TWO VERSIONS.  ONE VERSION NEAR
      THE TOP OF THE HOUR CONTAINING PRELIMINARY DATA FROM ALBUQUERQUE
      AND OTHER STATIONS.  A FINAL VERSION WITH ADDITIONAL DATA IS
      ISSUED ABOUT 10 MINUTES AFTER THE HOUR.

NMZ501-503-504-510>518-220200-
NORTHWEST PLATEAU/NORTHCENTRAL MOUNTAINS

CITY           SKY/WX    TMP DP  RH WIND       PRES   REMARKS
FARMINGTON     FAIR      64  27  24 NW23G30   30.05R
LOS ALAMOS     FAIR      56  24  28 S3        30.14R
SANTA FE       FAIR      62  24  23 S9        30.09F
TAOS           FAIR      57  24  28 N7        30.13S
ANGEL FIRE     MOCLDY    45  26  46 S14       30.18R

$$
NMZ402-403-502-505>509-220200-
WESTCENTRAL MOUNTAINS/SOUTHWEST MOUNTAINS

CITY           SKY/WX    TMP DP  RH WIND       PRES   REMARKS
GALLUP         FAIR      63  26  24 W10       30.15R
GRANTS         FAIR      63  22  20 N15       30.15S
SILVER CITY    FAIR      70  23  17 W10       30.07S

$$
NMZ407-409-411-412-220200-
SOUTHERN DESERTS

CITY           SKY/WX    TMP DP  RH WIND       PRES   REMARKS
DEMING         FAIR      74  22  14 S5        30.03S
LAS CRUCES     FAIR      71  25  17 SE5       30.07R
HOLLOMAN AFB   FAIR      71  26  19 N14       30.08S
ALAMOGORDO     FAIR      68  25  19 N14G22    30.07S
T OR C         FAIR      71  26  18 E9        30.07R

$$
NMZ519>523-220200-
CENTRAL VALLEYS/CENTRAL HIGHLANDS

CITY           SKY/WX    TMP DP  RH WIND       PRES   REMARKS
ALBUQUERQUE    FAIR      67  26  21 W14       30.08R
DOUBLE EAGLE   PTCLDY    64  25  22 NW13      30.10S
MORIARTY ARPT  FAIR      63  27  26 SW10      30.13S
CLINES CORNERS FAIR      56  24  29 W15       30.15S
BELEN          FAIR      68  23  18 N7        30.08S
SOCORRO        FAIR      69  26  19 N10       30.07F

$$
NMZ524>526-539-540-220200-
SOUTHCENTRAL MOUNTAINS

CITY           SKY/WX    TMP DP  RH WIND       PRES   REMARKS
RUIDOSO        FAIR      55  21  26 NW9G18    30.20R

$$
NMZ527>531-220200-
NORTHEAST HIGHLANDS/NORTHEAST PLAINS

CITY           SKY/WX    TMP DP  RH WIND       PRES   REMARKS
LAS VEGAS      FAIR      48  29  47 E10       30.16R
RATON          CLOUDY    45  32  60 NE15      30.16R
CLAYTON        LGT RAIN  43  40  89 NE13      30.17R

$$
NMZ532>537-220200-
EASTCENTRAL PLAINS

CITY           SKY/WX    TMP DP  RH WIND       PRES   REMARKS
SANTA ROSA     FAIR      59  30  32 E14       30.09R
TUCUMCARI      FAIR      53  41  63 E17       30.11S
CANNON AFB     FAIR      53  42  66 NE17      30.14R
CLOVIS AIRPORT FAIR      50  39  66 NE13      30.16S

$$
NMZ028-029-538-220200-
SOUTHEAST PLAINS

CITY           SKY/WX    TMP DP  RH WIND       PRES   REMARKS
ROSWELL        FAIR      71  28  20 E9        30.02R
ARTESIA        FAIR      72  27  18 NE9       30.03R
CARLSBAD       FAIR      74  25  16 NE9       30.00R
HOBBS          FAIR      63  34  34 NE17      30.08R


$$



USA.gov is the U.S. government's official web portal to all federal, state and local government web resources and services.